{"data":{"norad_id":45412,"epoch":"2026-09-20T01:36:53.646048Z","epoch_age_seconds":52061,"freshness":"FRESH","line1":"1 45412U 20019BE  26263.06728757  .00041709  00000+0  80724-3 0  9993","line2":"2 45412  53.1512 294.1759 0003999  33.6101 326.5160 15.47342075359903","mean_motion":15.47342075,"eccentricity":0.0003999,"inclination_deg":53.1512,"raan_deg":294.1759,"arg_perigee_deg":33.6101,"mean_anomaly_deg":326.516,"bstar":0.00080724,"rev_number":35990,"period_min":93.062809010735,"perigee_km":421.78465342417,"apogee_km":427.22540651974,"semimajor_km":6802.642029972,"source":"CELESTRAK","updated_at":"2026-09-20T09:00:38.234763Z"}}